When you browse on this site, cookies collect data to enhance your experience and personalize the content and advertising you see.
Visit our Privacy Policy to learn more. By continuing to use the site, you agree to this use of cookies and data.
  • In Romania
  • List of Countries
  • For 7 days
  • Water Temperature
  • Weather Map
  • Weather Widgets
  • user-avatar
    Login

    Hourly Weather Achenheim

    Today, 13 December, Friday

    Time Temperature Precipitation Wind Pressure Humidity
    00:00 0°C° 0 mm 4 mps 728 mmHg 83%
    01:00 +1°C° 0 mm 5 mps 726 mmHg 80%
    02:00 +1°C° 0.4 mm 5 mps 725 mmHg 84%
    03:00 +2°C° 0.4 mm 5 mps 724 mmHg 87%
    04:00 +2°C° 0.4 mm 5 mps 722 mmHg 90%
    05:00 +2°C° 0.5 mm 5 mps 721 mmHg 91%
    06:00 +3°C° 0.5 mm 5 mps 720 mmHg 91%
    07:00 +4°C° 0 mm 4 mps 719 mmHg 92%
    08:00 +3°C° 2 mm 5 mps 719 mmHg 90%
    09:00 +5°C° 2 mm 5 mps 719 mmHg 88%
    10:00 +4°C° 2 mm 6 mps 720 mmHg 86%
    11:00 +4°C° 0.4 mm 6 mps 720 mmHg 84%
    12:00 +4°C° 0.4 mm 6 mps 721 mmHg 83%
    13:00 +4°C° 0 mm 7 mps 722 mmHg 81%
    14:00 +4°C° 0.4 mm 7 mps 723 mmHg 83%
    15:00 +3°C° 0.4 mm 7 mps 723 mmHg 85%
    16:00 +3°C° 0.4 mm 7 mps 724 mmHg 87%
    17:00 +3°C° 0.7 mm 7 mps 725 mmHg 86%
    18:00 +3°C° 0.7 mm 7 mps 726 mmHg 85%
    19:00 +3°C° 0.7 mm 7 mps 728 mmHg 84%
    20:00 +3°C° 0 mm 6 mps 728 mmHg 84%
    21:00 +3°C° 0 mm 6 mps 729 mmHg 83%
    22:00 +3°C° 0 mm 6 mps 730 mmHg 83%
    23:00 +3°C° 0 mm 6 mps 730 mmHg 84%

    Tomorrow, 14 December, Saturday

    Time Temperature Precipitation Wind Pressure Humidity
    00:00 +2°C° 0 mm 5 mps 730 mmHg 85%
    01:00 +2°C° 0 mm 5 mps 730 mmHg 86%
    02:00 +2°C° 0.8 mm 6 mps 729 mmHg 88%
    03:00 +2°C° 0.8 mm 6 mps 728 mmHg 89%
    04:00 +2°C° 0.8 mm 7 mps 727 mmHg 90%
    05:00 +4°C° 0.6 mm 7 mps 728 mmHg 87%
    06:00 +5°C° 0.6 mm 7 mps 728 mmHg 84%
    07:00 +6°C° 0.6 mm 8 mps 728 mmHg 80%
    08:00 +6°C° 0 mm 8 mps 730 mmHg 79%
    09:00 +5°C° 0 mm 8 mps 732 mmHg 77%
    10:00 +5°C° 0 mm 8 mps 734 mmHg 75%
    11:00 +5°C° 0 mm 8 mps 734 mmHg 72%
    12:00 +6°C° 0 mm 7 mps 735 mmHg 69%
    13:00 +7°C° 0 mm 6 mps 736 mmHg 67%
    14:00 +7°C° 0 mm 6 mps 737 mmHg 68%
    15:00 +7°C° 0 mm 6 mps 737 mmHg 69%
    16:00 +5°C° 0 mm 6 mps 737 mmHg 70%
    17:00 +7°C° 0 mm 6 mps 737 mmHg 74%
    18:00 +7°C° 0 mm 6 mps 738 mmHg 78%
    19:00 +7°C° 0 mm 6 mps 738 mmHg 81%
    20:00 +7°C° 0 mm 5 mps 738 mmHg 83%
    21:00 +7°C° 0 mm 4 mps 738 mmHg 85%
    22:00 +8°C° 0 mm 3 mps 738 mmHg 87%
    23:00 +7°C° 0.1 mm 4 mps 738 mmHg 87%

    Day after tomorrow, 15 December, Sunday

    Time Temperature Precipitation Wind Pressure Humidity
    00:00 +8°C° 0.1 mm 4 mps 737 mmHg 87%
    01:00 +8°C° 0.1 mm 5 mps 737 mmHg 88%
    02:00 +8°C° 0.4 mm 5 mps 737 mmHg 87%
    03:00 +9°C° 0.4 mm 6 mps 736 mmHg 86%
    04:00 +9°C° 0.4 mm 6 mps 736 mmHg 85%
    05:00 +9°C° 0 mm 7 mps 736 mmHg 83%
    06:00 +10°C° 0 mm 7 mps 736 mmHg 80%
    07:00 +10°C° 0 mm 7 mps 736 mmHg 77%
    08:00 +10°C° 0.2 mm 7 mps 737 mmHg 78%
    09:00 +10°C° 0.2 mm 7 mps 738 mmHg 79%
    10:00 +10°C° 0.2 mm 6 mps 739 mmHg 80%
    11:00 +9°C° 0.6 mm 5 mps 740 mmHg 82%
    12:00 +10°C° 0.6 mm 4 mps 740 mmHg 84%
    13:00 +10°C° 0.6 mm 3 mps 741 mmHg 86%
    14:00 +9°C° 0.2 mm 3 mps 741 mmHg 87%
    15:00 +9°C° 0.2 mm 2 mps 741 mmHg 88%
    16:00 +9°C° 0.2 mm 2 mps 741 mmHg 89%
    17:00 +9°C° 0.5 mm 2 mps 741 mmHg 90%
    18:00 +9°C° 0.5 mm 2 mps 742 mmHg 91%
    19:00 +9°C° 0.5 mm 3 mps 742 mmHg 92%
    20:00 +9°C° 0 mm 3 mps 742 mmHg 91%
    21:00 +9°C° 0 mm 2 mps 742 mmHg 90%
    22:00 +9°C° 0 mm 2 mps 742 mmHg 90%
    23:00 +9°C° 0.1 mm 2 mps 742 mmHg 89%

    16 December, Monday

    Time Temperature Precipitation Wind Pressure Humidity
    00:00 +9°C° 0.1 mm 2 mps 742 mmHg 89%
    01:00 +10°C° 0.1 mm 1 mps 742 mmHg 88%
    02:00 +8°C° 0 mm 2 mps 741 mmHg 88%
    03:00 +8°C° 0 mm 2 mps 741 mmHg 87%
    04:00 +8°C° 0 mm 2 mps 741 mmHg 86%
    05:00 +8°C° 0 mm 2 mps 741 mmHg 85%
    06:00 +8°C° 0 mm 2 mps 741 mmHg 84%
    07:00 +7°C° 0 mm 2 mps 740 mmHg 83%
    08:00 +8°C° 0 mm 2 mps 740 mmHg 81%
    09:00 +8°C° 0 mm 2 mps 741 mmHg 79%
    10:00 +8°C° 0 mm 2 mps 741 mmHg 76%
    11:00 +10°C° 0 mm 1 mps 740 mmHg 74%
    12:00 +10°C° 0 mm 1 mps 740 mmHg 72%
    13:00 +11°C° 0 mm 1 mps 739 mmHg 70%
    14:00 +10°C° 0 mm 1 mps 739 mmHg 72%
    15:00 +10°C° 0 mm 1 mps 739 mmHg 73%
    16:00 +9°C° 0 mm 1 mps 739 mmHg 75%
    17:00 +9°C° 0 mm 1 mps 738 mmHg 77%
    18:00 +8°C° 0 mm 1 mps 738 mmHg 78%
    19:00 +7°C° 0 mm 1 mps 738 mmHg 79%
    20:00 +7°C° 0 mm 1 mps 738 mmHg 80%
    21:00 +7°C° 0 mm 1 mps 738 mmHg 80%
    22:00 +6°C° 0 mm 2 mps 737 mmHg 81%
    23:00 +6°C° 0 mm 2 mps 737 mmHg 81%

    17 December, Tuesday

    Time Temperature Precipitation Wind Pressure Humidity
    00:00 +7°C° 0 mm 1 mps 737 mmHg 82%
    01:00 +7°C° 0 mm 1 mps 737 mmHg 82%
    02:00 +7°C° 0 mm 1 mps 737 mmHg 82%
    03:00 +7°C° 0 mm 1 mps 737 mmHg 82%
    04:00 +7°C° 0 mm 1 mps 737 mmHg 82%
    05:00 +7°C° 0 mm 1 mps 738 mmHg 83%
    06:00 +7°C° 0 mm 1 mps 738 mmHg 83%
    07:00 +6°C° 0 mm 0 mps 738 mmHg 84%
    08:00 +7°C° 0 mm 1 mps 738 mmHg 83%
    09:00 +8°C° 0 mm 1 mps 738 mmHg 83%
    10:00 +8°C° 0 mm 1 mps 739 mmHg 82%
    11:00 +9°C° 0 mm 1 mps 738 mmHg 79%
    12:00 +10°C° 0 mm 1 mps 738 mmHg 77%
    13:00 +11°C° 0 mm 1 mps 738 mmHg 75%
    14:00 +10°C° 0 mm 1 mps 738 mmHg 77%
    15:00 +9°C° 0 mm 0 mps 738 mmHg 78%
    16:00 +9°C° 0 mm 0 mps 738 mmHg 80%
    17:00 +9°C° 0 mm 0 mps 738 mmHg 80%
    18:00 +9°C° 0 mm 1 mps 739 mmHg 80%
    19:00 +9°C° 0 mm 1 mps 739 mmHg 81%
    20:00 +9°C° 0 mm 1 mps 740 mmHg 82%
    21:00 +9°C° 0 mm 1 mps 741 mmHg 83%
    22:00 +9°C° 0 mm 1 mps 741 mmHg 85%
    23:00 +9°C° 0 mm 1 mps 742 mmHg 86%

    18 December, Wednesday

    Time Temperature Precipitation Wind Pressure Humidity
    00:00 +8°C° 0 mm 1 mps 742 mmHg 88%
    01:00 +8°C° 0 mm 1 mps 742 mmHg 89%
    02:00 +8°C° 0 mm 1 mps 743 mmHg 90%
    03:00 +8°C° 0 mm 1 mps 743 mmHg 90%
    04:00 +8°C° 0 mm 1 mps 743 mmHg 90%
    05:00 +8°C° 0 mm 1 mps 744 mmHg 90%
    06:00 +8°C° 0 mm 1 mps 744 mmHg 91%
    07:00 +7°C° 0 mm 0 mps 744 mmHg 91%
    08:00 +7°C° 0 mm 0 mps 744 mmHg 90%
    09:00 +7°C° 0 mm 0 mps 745 mmHg 90%
    10:00 +7°C° 0 mm 0 mps 745 mmHg 90%
    11:00 +8°C° 0 mm 0 mps 745 mmHg 88%
    12:00 +9°C° 0 mm 1 mps 744 mmHg 86%
    13:00 +10°C° 0 mm 1 mps 744 mmHg 84%
    14:00 +9°C° 0 mm 1 mps 744 mmHg 86%
    15:00 +9°C° 0 mm 1 mps 744 mmHg 88%
    16:00 +9°C° 0 mm 1 mps 744 mmHg 90%
    17:00 +8°C° 0 mm 1 mps 744 mmHg 91%
    18:00 +8°C° 0 mm 1 mps 744 mmHg 92%
    19:00 +8°C° 0 mm 1 mps 743 mmHg 93%
    20:00 +7°C° 0 mm 1 mps 743 mmHg 93%
    21:00 +7°C° 0 mm 1 mps 743 mmHg 93%
    22:00 +7°C° 0 mm 1 mps 743 mmHg 93%
    23:00 +7°C° 0 mm 1 mps 743 mmHg 93%
    Show more